EW4858 Weather Reports


Display with metric or nautical units.
time (UTC)temp
F
wind
direction
speed
MPH
gust
MPH
rain 1hr
in
rain 24hr
in
rain mn
in
humidity
%
barometer
mb
20260903111518 58 254 0.0 4.0 0.00 0.00 0.00 82 1010.4
20260903110016 58 254 0.0 4.0 0.00 0.00 0.00 82 1010.3
20260903104516 59 254 2.0 6.0 0.00 0.00 0.00 81 1010.4
20260903103015 59 239 2.0 4.0 0.00 0.00 0.00 81 1010.3
20260903101512 59 238 2.0 4.0 0.00 0.00 0.00 81 1010.3
20260903100011 59 238 0.0 4.0 0.00 0.00 0.00 81 1010.4
20260903094509 60 238 0.0 4.0 0.00 0.00 0.00 81 1010.5
20260903093015 60 238 0.0 4.0 0.00 0.00 0.00 80 1010.6
20260903091505 61 238 0.0 0.0 0.00 0.00 0.00 80 1010.7
20260903090004 61 238 0.0 0.0 0.00 0.00 0.00 80 1010.8
20260903084503 61 238 0.0 0.0 0.00 0.00 0.00 80 1010.9
20260903083100 61 238 0.0 0.0 0.00 0.00 0.00 80 1011.1
20260903081559 61 238 0.0 0.0 0.00 0.00 0.00 79 1011.2
20260903080057 61 238 0.0 4.0 0.00 0.00 0.00 79 1011.2
20260903074555 62 238 1.0 3.0 0.00 0.00 0.00 78 1011.2
20260903073100 63 238 0.0 3.0 0.00 0.00 0.00 79 1011.2
20260903071553 63 200 0.0 0.0 0.00 0.00 0.00 81 1011.2
20260903070047 64 163 0.0 0.0 0.00 0.00 0.00 81 1011.1
20260903064547 64 163 0.0 0.0 0.00 0.00 0.00 80 1011.2
20260903063047 65 163 0.0 0.0 0.00 0.00 0.00 80 1011.2
20260903061547 66 132 0.0 0.0 0.00 0.00 0.00 81 1011.1
20260903060046 66 132 0.0 0.0 0.00 0.00 0.00 81 1011.2
20260903054545 67 132 0.0 0.0 0.00 0.00 0.00 81 1011.3
20260903053045 67 132 0.0 3.0 0.00 0.00 0.00 81 1011.4
20260903051551 67 121 1.0 3.0 0.00 0.00 0.00 80 1011.3
20260903050044 67 95 1.0 3.0 0.00 0.00 0.00 79 1011.4
20260903044547 68 140 0.0 3.0 0.00 0.00 0.00 78 1011.3
20260903043043 68 105 0.0 5.0 0.00 0.00 0.00 78 1011.3
20260903041542 68 130 0.0 3.0 0.00 0.00 0.00 77 1011.2
20260903040043 68 108 2.0 5.0 0.00 0.00 0.00 76 1011.0
20260903034542 69 113 3.0 7.0 0.00 0.00 0.00 75 1010.9
20260903033041 69 111 3.0 7.0 0.00 0.00 0.00 73 1010.7
20260903031543 70 121 2.0 5.0 0.00 0.00 0.00 69 1010.6
20260903030041 71 94 4.0 7.0 0.00 0.00 0.00 64 1010.4
20260903024540 72 89 0.0 7.0 0.00 0.00 0.00 60 1010.3
20260903023056 73 73 4.0 8.0 0.00 0.00 0.00 59 1010.2
20260903021544 74 81 4.0 6.0 0.00 0.00 0.00 58 1010.2
20260903020038 75 62 4.0 7.0 0.00 0.00 0.00 56 1010.1
20260903014539 77 78 3.0 8.0 0.00 0.00 0.00 54 1010.0
20260903013039 78 77 2.0 7.0 0.00 0.00 0.00 51 1009.9
20260903011537 78 15 4.0 8.0 0.00 0.00 0.00 49 1009.8
20260903010037 79 49 4.0 8.0 0.00 0.00 0.00 48 1009.8
20260903004651 79 61 5.0 9.0 0.00 0.00 0.00 49 1009.8
20260903003036 80 40 4.0 11.0 0.00 0.00 0.00 48 1009.7
20260903001535 80 51 6.0 9.0 0.00 0.00 0.00 47 1009.7
20260903000033 80 107 4.0 11.0 0.00 0.00 0.00 48 1009.8
20260902234631 80 42 6.0 9.0 0.00 0.00 0.00 48 1009.9
20260902233120 81 40 6.0 12.0 0.00 0.00 0.00 47 1009.9
20260902230048 81 45 7.0 13.0 0.00 0.00 0.00 50 1010.1
20260902224548 81 5 5.0 10.0 0.00 0.00 0.00 49 1010.1
20260902223046 82 63 5.0 13.0 0.00 0.00 0.00 48 1010.2
20260902221553 81 63 6.0 14.0 0.00 0.00 0.00 49 1010.4
20260902220045 82 47 5.0 14.0 0.00 0.00 0.00 49 1010.4
20260902214547 82 42 6.0 13.0 0.00 0.00 0.00 49 1010.4
20260902213051 82 65 7.0 12.0 0.00 0.00 0.00 47 1010.4
20260902211547 83 44 6.0 13.0 0.00 0.00 0.00 46 1010.4
20260902210043 84 64 6.0 14.0 0.00 0.00 0.00 46 1010.4
20260902204643 85 60 6.0 11.0 0.00 0.00 0.00 43 1010.3
20260902203045 85 46 2.0 12.0 0.00 0.00 0.00 40 1010.4
20260902201539 85 63 7.0 12.0 0.00 0.00 0.00 40 1010.6
20260902200038 85 348 1.0 10.0 0.00 0.00 0.00 41 1010.6
20260902194536 84 47 5.0 11.0 0.00 0.00 0.00 44 1010.9
20260902193038 84 86 5.0 10.0 0.00 0.00 0.00 44 1011.0
20260902191530 83 50 5.0 10.0 0.00 0.00 0.00 45 1011.4
20260902190028 82 59 2.0 8.0 0.00 0.00 0.00 44 1011.5
20260902184525 81 41 2.0 6.0 0.00 0.00 0.00 47 1011.6
20260902183022 80 44 4.0 9.0 0.00 0.00 0.00 51 1011.8
20260902181515 78 34 2.0 6.0 0.00 0.00 0.00 55 1012.0
20260902180008 78 98 3.0 8.0 0.00 0.00 0.00 58 1012.1
20260902174547 76 28 1.0 5.0 0.00 0.00 0.00 61 1012.1
20260902173059 74 74 2.0 5.0 0.00 0.00 0.00 62 1012.2
20260902171601 73 5 1.0 5.0 0.00 0.00 0.00 64 1012.2
20260902170054 72 19 2.0 5.0 0.00 0.00 0.00 67 1012.1
20260902164556 70 40 0.0 4.0 0.00 0.00 0.00 72 1012.1
20260902163047 69 165 0.0 4.0 0.00 0.00 0.00 75 1012.3
20260902161543 68 148 0.0 0.0 0.00 0.00 0.00 78 1012.3
20260902160048 67 151 0.0 5.0 0.00 0.00 0.00 79 1012.4
20260902154555 67 42 0.0 3.0 0.00 0.00 0.00 78 1012.4
20260902153040 66 260 0.0 3.0 0.00 0.00 0.00 78 1012.3
20260902151540 65 260 0.0 0.0 0.00 0.00 0.00 78 1012.2
20260902150041 65 260 0.0 2.0 0.00 0.00 0.00 74 1012.3
20260902144537 64 260 0.0 5.0 0.00 0.00 0.00 76 1012.3
20260902143037 63 262 0.0 0.0 0.00 0.00 0.00 80 1012.2
20260902141534 61 262 0.0 0.0 0.00 0.00 0.00 82 1012.3
20260902140031 60 262 0.0 0.0 0.00 0.00 0.00 82 1012.2
20260902134623 59 262 0.0 0.0 0.00 0.00 0.00 82 1012.0
20260902133017 59 262 0.0 3.0 0.00 0.00 0.00 82 1011.7
20260902131516 59 262 1.0 2.0 0.00 0.00 0.00 82 1011.4
20260902130014 59 262 1.0 4.0 0.00 0.00 0.00 82 1011.3
20260902124512 60 262 1.0 5.0 0.00 0.00 0.00 81 1011.2
20260902123010 60 257 2.0 5.0 0.00 0.00 0.00 82 1011.2
20260902121510 60 250 0.0 4.0 0.00 0.00 0.00 82 1011.2
20260902120010 60 250 0.0 3.0 0.00 0.00 0.00 81 1011.2
20260902114504 61 250 3.0 5.0 0.00 0.00 0.00 81 1011.2
20260902113002 62 263 3.0 6.0 0.00 0.00 0.00 81 1011.3